• In United Kingdom
  • List of Countries
  • For 7 days
  • Water Temperature
  • Satellite Maps
  • Weather Map
  • Weather Widgets
  • user-avatar
    Login

    Hourly Weather Korçe

    Today, 28 July, Friday

    Time Temperature Precipitation Wind Pressure Humidity
    00:00 +13°C° 0 mm 1 mps 664 mmHg 73%
    01:00 +12°C° 0 mm 1 mps 664 mmHg 72%
    02:00 +12°C° 0 mm 1 mps 664 mmHg 72%
    03:00 +12°C° 0 mm 1 mps 664 mmHg 72%
    04:00 +12°C° 0 mm 1 mps 664 mmHg 73%
    05:00 +14°C° 0 mm 1 mps 665 mmHg 68%
    06:00 +16°C° 0 mm 1 mps 665 mmHg 63%
    07:00 +19°C° 0 mm 1 mps 666 mmHg 58%
    08:00 +19°C° 0 mm 2 mps 667 mmHg 51%
    09:00 +21°C° 0 mm 3 mps 667 mmHg 45%
    10:00 +22°C° 0 mm 4 mps 668 mmHg 38%
    11:00 +23°C° 0 mm 4 mps 668 mmHg 37%
    12:00 +25°C° 0 mm 4 mps 668 mmHg 36%
    13:00 +26°C° 0 mm 4 mps 668 mmHg 34%
    14:00 +25°C° 0 mm 4 mps 668 mmHg 35%
    15:00 +25°C° 0 mm 4 mps 668 mmHg 36%
    16:00 +25°C° 0 mm 4 mps 668 mmHg 36%
    17:00 +22°C° 0 mm 3 mps 668 mmHg 42%
    18:00 +20°C° 0 mm 2 mps 667 mmHg 48%
    19:00 +19°C° 0 mm 1 mps 667 mmHg 54%
    20:00 +18°C° 0 mm 1 mps 667 mmHg 55%
    21:00 +16°C° 0 mm 1 mps 668 mmHg 56%
    22:00 +15°C° 0 mm 1 mps 668 mmHg 57%
    23:00 +15°C° 0 mm 1 mps 668 mmHg 57%

    Tomorrow, 29 July, Saturday

    Time Temperature Precipitation Wind Pressure Humidity
    00:00 +15°C° 0 mm 1 mps 668 mmHg 57%
    01:00 +15°C° 0 mm 1 mps 668 mmHg 57%
    02:00 +15°C° 0 mm 1 mps 668 mmHg 58%
    03:00 +15°C° 0 mm 1 mps 668 mmHg 58%
    04:00 +14°C° 0 mm 1 mps 668 mmHg 59%
    05:00 +16°C° 0 mm 1 mps 669 mmHg 55%
    06:00 +19°C° 0 mm 1 mps 670 mmHg 52%
    07:00 +21°C° 0 mm 1 mps 671 mmHg 48%
    08:00 +23°C° 0 mm 1 mps 671 mmHg 44%
    09:00 +25°C° 0 mm 1 mps 672 mmHg 39%
    10:00 +28°C° 0 mm 1 mps 672 mmHg 34%
    11:00 +28°C° 0 mm 1 mps 672 mmHg 33%
    12:00 +29°C° 0 mm 1 mps 672 mmHg 31%
    13:00 +30°C° 0 mm 1 mps 673 mmHg 30%
    14:00 +30°C° 0 mm 2 mps 672 mmHg 31%
    15:00 +29°C° 0 mm 2 mps 672 mmHg 32%
    16:00 +29°C° 0 mm 2 mps 672 mmHg 33%
    17:00 +27°C° 0 mm 2 mps 671 mmHg 40%
    18:00 +24°C° 0 mm 1 mps 671 mmHg 46%
    19:00 +22°C° 0 mm 1 mps 670 mmHg 53%
    20:00 +21°C° 0 mm 1 mps 670 mmHg 55%
    21:00 +20°C° 0 mm 1 mps 670 mmHg 57%
    22:00 +20°C° 0 mm 1 mps 670 mmHg 60%
    23:00 +19°C° 0 mm 1 mps 670 mmHg 60%

    Day after tomorrow, 30 July, Sunday

    Time Temperature Precipitation Wind Pressure Humidity
    00:00 +19°C° 0 mm 1 mps 670 mmHg 61%
    01:00 +19°C° 0 mm 1 mps 670 mmHg 61%
    02:00 +19°C° 0 mm 1 mps 670 mmHg 61%
    03:00 +18°C° 0 mm 1 mps 670 mmHg 62%
    04:00 +18°C° 0 mm 1 mps 670 mmHg 62%
    05:00 +20°C° 0 mm 1 mps 670 mmHg 57%
    06:00 +22°C° 0 mm 1 mps 671 mmHg 53%
    07:00 +23°C° 0 mm 1 mps 671 mmHg 49%
    08:00 +25°C° 0 mm 1 mps 672 mmHg 43%
    09:00 +27°C° 0 mm 1 mps 672 mmHg 38%
    10:00 +29°C° 0 mm 1 mps 673 mmHg 33%
    11:00 +30°C° 0 mm 1 mps 672 mmHg 32%
    12:00 +31°C° 0 mm 2 mps 672 mmHg 31%
    13:00 +31°C° 0 mm 2 mps 672 mmHg 30%
    14:00 +31°C° 0 mm 2 mps 672 mmHg 32%
    15:00 +30°C° 0 mm 2 mps 672 mmHg 35%
    16:00 +29°C° 0 mm 2 mps 671 mmHg 37%
    17:00 +27°C° 0 mm 2 mps 671 mmHg 42%
    18:00 +25°C° 0 mm 2 mps 670 mmHg 47%
    19:00 +23°C° 0 mm 1 mps 670 mmHg 52%
    20:00 +22°C° 0 mm 1 mps 670 mmHg 55%
    21:00 +21°C° 0 mm 1 mps 670 mmHg 57%
    22:00 +21°C° 0 mm 1 mps 670 mmHg 59%
    23:00 +20°C° 0 mm 1 mps 670 mmHg 60%

    31 July, Monday

    Time Temperature Precipitation Wind Pressure Humidity
    00:00 +20°C° 0 mm 1 mps 670 mmHg 61%
    01:00 +20°C° 0 mm 1 mps 669 mmHg 62%
    02:00 +19°C° 0 mm 1 mps 669 mmHg 62%
    03:00 +19°C° 0 mm 1 mps 669 mmHg 63%
    04:00 +19°C° 0 mm 1 mps 669 mmHg 63%
    05:00 +21°C° 0 mm 1 mps 669 mmHg 59%
    06:00 +22°C° 0 mm 1 mps 670 mmHg 55%
    07:00 +24°C° 0 mm 1 mps 670 mmHg 51%
    08:00 +26°C° 0 mm 1 mps 671 mmHg 47%
    09:00 +28°C° 0 mm 2 mps 671 mmHg 42%
    10:00 +29°C° 0 mm 2 mps 672 mmHg 37%
    11:00 +30°C° 0 mm 2 mps 672 mmHg 36%
    12:00 +31°C° 0 mm 2 mps 671 mmHg 35%
    13:00 +31°C° 0 mm 3 mps 671 mmHg 33%
    14:00 +31°C° 0 mm 3 mps 671 mmHg 35%
    15:00 +30°C° 0 mm 2 mps 671 mmHg 37%
    16:00 +29°C° 0 mm 2 mps 670 mmHg 39%
    17:00 +27°C° 0 mm 2 mps 670 mmHg 45%
    18:00 +25°C° 0 mm 2 mps 670 mmHg 51%
    19:00 +23°C° 0 mm 1 mps 670 mmHg 56%
    20:00 +23°C° 0 mm 1 mps 670 mmHg 59%
    21:00 +22°C° 0 mm 1 mps 670 mmHg 61%
    22:00 +20°C° 0 mm 2 mps 670 mmHg 64%
    23:00 +19°C° 0 mm 2 mps 670 mmHg 64%

    1 August, Tuesday

    Time Temperature Precipitation Wind Pressure Humidity
    00:00 +19°C° 0 mm 2 mps 670 mmHg 64%
    01:00 +19°C° 0 mm 2 mps 669 mmHg 64%
    02:00 +18°C° 0 mm 2 mps 669 mmHg 64%
    03:00 +18°C° 0 mm 2 mps 669 mmHg 64%
    04:00 +19°C° 0 mm 1 mps 669 mmHg 63%
    05:00 +19°C° 0 mm 2 mps 670 mmHg 60%
    06:00 +21°C° 0 mm 2 mps 670 mmHg 56%
    07:00 +24°C° 0 mm 2 mps 671 mmHg 52%
    08:00 +25°C° 0 mm 2 mps 671 mmHg 46%
    09:00 +27°C° 0 mm 2 mps 671 mmHg 40%
    10:00 +29°C° 0 mm 2 mps 672 mmHg 35%
    11:00 +30°C° 0 mm 2 mps 672 mmHg 32%
    12:00 +30°C° 0 mm 2 mps 672 mmHg 30%
    13:00 +31°C° 0 mm 3 mps 671 mmHg 28%
    14:00 +31°C° 0 mm 3 mps 671 mmHg 29%
    15:00 +31°C° 0 mm 3 mps 671 mmHg 29%
    16:00 +31°C° 0 mm 3 mps 671 mmHg 29%
    17:00 +28°C° 0 mm 2 mps 670 mmHg 37%
    18:00 +26°C° 0 mm 2 mps 670 mmHg 44%
    19:00 +23°C° 0 mm 1 mps 670 mmHg 51%
    20:00 +22°C° 0 mm 1 mps 670 mmHg 52%
    21:00 +21°C° 0 mm 1 mps 670 mmHg 54%
    22:00 +20°C° 0 mm 1 mps 670 mmHg 56%
    23:00 +20°C° 0 mm 1 mps 669 mmHg 55%

    2 August, Wednesday

    Time Temperature Precipitation Wind Pressure Humidity
    00:00 +19°C° 0 mm 1 mps 669 mmHg 54%
    01:00 +19°C° 0 mm 1 mps 669 mmHg 52%
    02:00 +19°C° 0 mm 1 mps 669 mmHg 52%
    03:00 +18°C° 0 mm 1 mps 669 mmHg 51%
    04:00 +18°C° 0 mm 1 mps 669 mmHg 51%
    05:00 +20°C° 0 mm 1 mps 669 mmHg 48%
    06:00 +22°C° 0 mm 1 mps 670 mmHg 45%
    07:00 +24°C° 0 mm 1 mps 670 mmHg 42%
    08:00 +25°C° 0 mm 1 mps 670 mmHg 39%
    09:00 +27°C° 0 mm 1 mps 671 mmHg 35%
    10:00 +29°C° 0 mm 1 mps 671 mmHg 31%
    11:00 +30°C° 0 mm 2 mps 671 mmHg 30%
    12:00 +31°C° 0 mm 2 mps 671 mmHg 28%
    13:00 +31°C° 0 mm 2 mps 671 mmHg 26%
    14:00 +31°C° 0 mm 2 mps 670 mmHg 27%
    15:00 +31°C° 0 mm 2 mps 670 mmHg 27%
    16:00 +31°C° 0 mm 2 mps 670 mmHg 28%
    17:00 +28°C° 0 mm 2 mps 670 mmHg 35%
    18:00 +26°C° 0 mm 2 mps 669 mmHg 41%
    19:00 +23°C° 0 mm 1 mps 669 mmHg 48%
    20:00 +22°C° 0 mm 1 mps 669 mmHg 50%
    21:00 +21°C° 0 mm 1 mps 669 mmHg 53%
    22:00 +20°C° 0 mm 1 mps 669 mmHg 55%
    23:00 +20°C° 0 mm 1 mps 669 mmHg 55%
    Show more